CW5539 Weather Reports


Display with metric or nautical units.
time (UTC)temp
F
wind
direction
speed
MPH
gust
MPH
rain 1hr
in
rain 24hr
in
rain mn
in
humidity
%
barometer
mb
20260503231844 58 252 1.0 7.0 0.00 0.00 0.00 31 1014.9
20260503231341 58 232 1.0 7.0 0.00 0.00 0.00 31 1015.0
20260503230837 58 230 2.0 3.0 0.00 0.00 0.00 31 1014.8
20260503230334 58 268 0.0 4.0 0.00 0.00 0.00 32 1014.7
20260503225832 59 282 1.0 3.0 0.00 0.00 0.00 30 1014.7
20260503225328 59 240 1.0 2.0 0.00 0.00 0.00 30 1014.8
20260503224824 59 257 0.0 7.0 0.00 0.00 0.00 30 1014.6
20260503224321 59 205 2.0 6.0 0.00 0.00 0.00 30 1014.5
20260503223819 59 190 3.0 4.0 0.00 0.00 0.00 30 1014.5
20260503223317 59 328 2.0 6.0 0.00 0.00 0.00 30 1014.7
20260503222812 59 307 2.0 7.0 0.00 0.00 0.00 29 1014.6
20260503222311 60 216 4.0 7.0 0.00 0.00 0.00 29 1014.5
20260503221809 60 286 2.0 2.0 0.00 0.00 0.00 30 1014.6
20260503221307 60 270 2.0 3.0 0.00 0.00 0.00 29 1014.5
20260503220802 60 243 3.0 4.0 0.00 0.00 0.00 30 1014.6
20260503220259 60 281 6.0 10.0 0.00 0.00 0.00 28 1014.6
20260503215756 60 263 2.0 7.0 0.00 0.00 0.00 29 1014.6
20260503215253 60 303 3.0 4.0 0.00 0.00 0.00 29 1014.4
20260503214751 61 216 2.0 4.0 0.00 0.00 0.00 28 1014.5
20260503214248 62 245 4.0 6.0 0.00 0.00 0.00 28 1014.5
20260503213746 63 251 1.0 7.0 0.00 0.00 0.00 28 1014.4
20260503213243 62 268 1.0 3.0 0.00 0.00 0.00 28 1014.3
20260503212740 62 257 3.0 7.0 0.00 0.00 0.00 27 1014.4
20260503212237 62 212 3.0 10.0 0.00 0.00 0.00 29 1014.4
20260503211735 63 250 1.0 4.0 0.00 0.00 0.00 28 1014.3
20260503211231 62 277 3.0 4.0 0.00 0.00 0.00 28 1014.4
20260503210726 62 243 0.0 6.0 0.00 0.00 0.00 28 1014.3
20260503210224 62 279 2.0 7.0 0.00 0.00 0.00 28 1014.2
20260503205719 63 301 1.0 8.0 0.00 0.00 0.00 29 1014.4
20260503205216 62 244 3.0 4.0 0.00 0.00 0.00 27 1014.2
20260503204712 62 239 4.0 7.0 0.00 0.00 0.00 27 1014.0
20260503204210 62 254 4.0 7.0 0.00 0.00 0.00 28 1014.2
20260503203707 62 172 3.0 4.0 0.00 0.00 0.00 28 1014.2
20260503203205 61 255 1.0 6.0 0.00 0.00 0.00 31 1014.2
20260503202701 61 254 5.0 13.0 0.00 0.00 0.00 29 1014.0
20260503202159 62 350 2.0 10.0 0.00 0.00 0.00 29 1014.1
20260503201657 62 242 2.0 7.0 0.00 0.00 0.00 32 1014.0
20260503201155 61 285 2.0 3.0 0.00 0.00 0.00 32 1014.1
20260503200650 61 297 4.0 9.0 0.00 0.00 0.00 29 1014.3
20260503200147 60 219 4.0 6.0 0.00 0.00 0.00 30 1014.3
20260503195644 60 267 3.0 8.0 0.00 0.00 0.00 30 1014.2
20260503195141 60 285 3.0 4.0 0.00 0.00 0.00 32 1014.3
20260503194638 59 310 4.0 9.0 0.00 0.00 0.00 32 1014.7
20260503194133 60 185 5.0 10.0 0.00 0.00 0.00 30 1014.8
20260503193631 60 272 3.0 10.0 0.00 0.00 0.00 33 1014.7
20260503193126 60 246 0.0 4.0 0.00 0.00 0.00 33 1014.5
20260503192622 61 267 3.0 4.0 0.00 0.00 0.00 33 1014.6
20260503192118 60 230 2.0 3.0 0.00 0.00 0.00 32 1014.6
20260503191615 60 227 6.0 9.0 0.00 0.00 0.00 31 1014.7
20260503191111 60 308 2.0 8.0 0.00 0.00 0.00 33 1014.8
20260503190609 61 236 8.0 11.0 0.00 0.00 0.00 31 1014.9
20260503190106 60 240 0.0 3.0 0.00 0.00 0.00 34 1015.0
20260503185602 60 287 2.0 13.0 0.00 0.00 0.00 36 1014.9
20260503185102 60 274 2.0 8.0 0.00 0.00 0.00 34 1015.1
20260503184557 60 259 1.0 3.0 0.00 0.00 0.00 35 1014.8
20260503184054 59 216 3.0 7.0 0.00 0.00 0.00 38 1015.1
20260503183551 58 256 2.0 2.0 0.00 0.00 0.00 34 1015.1
20260503183048 59 333 1.0 4.0 0.00 0.00 0.00 37 1015.3
20260503182547 58 241 0.0 9.0 0.00 0.00 0.00 37 1014.9
20260503182044 57 258 2.0 4.0 0.00 0.00 0.00 38 1015.3
20260503181541 57 323 1.0 4.0 0.00 0.00 0.00 36 1015.2
20260503181037 57 256 1.0 3.0 0.00 0.00 0.00 39 1015.3
20260503180535 56 246 1.0 7.0 0.00 0.00 0.00 38 1015.2
20260503180032 58 268 4.0 6.0 0.00 0.00 0.00 34 1015.3
20260503175529 58 252 4.0 7.0 0.00 0.00 0.00 35 1015.3
20260503175026 56 3 2.0 11.0 0.00 0.00 0.00 38 1015.2
20260503174524 55 277 1.0 4.0 0.00 0.00 0.00 36 1015.4
20260503174020 56 305 3.0 8.0 0.00 0.00 0.00 35 1015.1
20260503173515 56 240 3.0 7.0 0.00 0.00 0.00 37 1015.4
20260503173011 56 342 2.0 8.0 0.00 0.00 0.00 37 1015.3
20260503172509 57 273 3.0 8.0 0.00 0.00 0.00 36 1015.3
20260503172006 57 270 2.0 4.0 0.00 0.00 0.00 37 1015.4
20260503171502 56 300 3.0 6.0 0.00 0.00 0.00 36 1015.5
20260503171000 58 265 1.0 3.0 0.00 0.00 0.00 37 1015.5
20260503170456 58 351 3.0 3.0 0.00 0.00 0.00 36 1015.2
20260503150848 54 292 1.0 4.0 0.00 0.00 0.00 40 1015.8
20260503150344 54 262 2.0 6.0 0.00 0.00 0.00 41 1015.8
20260503140309 52 188 4.0 7.0 0.00 0.00 0.00 45 1016.2
20260503131238 51 277 3.0 4.0 0.00 0.00 0.00 47 1015.7
20260503130736 51 275 1.0 3.0 0.00 0.00 0.00 48 1015.7
20260503130233 51 274 2.0 6.0 0.00 0.00 0.00 48 1016.0
20260503120159 48 287 6.0 10.0 0.00 0.00 0.00 52 1015.3
20260503110626 47 264 0.0 3.0 0.00 0.00 0.00 53 1014.8
20260503110124 47 248 1.0 2.0 0.00 0.00 0.00 53 1014.7
20260503081439 48 254 1.0 2.0 0.00 0.00 0.00 52 1013.5
20260503080937 47 306 0.0 1.0 0.00 0.00 0.00 53 1013.6
20260503080433 47 252 0.0 0.0 0.00 0.00 0.00 54 1013.1
20260503072909 47 254 0.0 0.0 0.00 0.00 0.00 55 1013.3
20260503072407 48 254 0.0 0.0 0.00 0.00 0.00 53 1013.5
20260503071903 48 254 0.0 0.0 0.00 0.00 0.00 52 1013.4
20260503071401 49 253 0.0 0.0 0.00 0.00 0.00 51 1013.4
20260503070856 49 254 0.0 0.0 0.00 0.00 0.00 50 1013.4
20260503070354 50 260 0.0 0.0 0.00 0.00 0.00 50 1013.4
20260503060320 51 321 1.0 2.0 0.00 0.00 0.00 45 1013.5
20260503054808 51 297 0.0 3.0 0.00 0.00 0.00 46 1013.7
20260503054303 51 257 0.0 0.0 0.00 0.00 0.00 50 1013.6
20260503053801 51 256 0.0 0.0 0.00 0.00 0.00 50 1013.5
20260503053300 51 256 0.0 0.0 0.00 0.00 0.00 49 1013.5
20260503052755 51 256 0.0 0.0 0.00 0.00 0.00 49 1013.6
20260503052253 51 249 0.0 0.0 0.00 0.00 0.00 49 1013.6
20260503051748 51 248 0.0 0.0 0.00 0.00 0.00 47 1013.6
20260503051246 51 255 0.0 0.0 0.00 0.00 0.00 47 1013.5
20260503050742 51 260 0.0 1.0 0.00 0.00 0.00 48 1013.5
20260503050238 52 262 0.0 0.0 0.00 0.00 0.00 47 1013.7
20260503045736 52 279 1.0 1.0 0.00 0.00 0.00 46 1014.1
20260503045234 52 256 0.0 0.0 0.00 0.00 0.00 46 1013.9
20260503044730 52 254 0.0 1.0 0.00 0.00 0.00 44 1014.1
20260503044227 52 260 0.0 1.0 0.00 0.00 0.00 45 1014.1
20260503043724 52 256 0.0 0.0 0.00 0.00 0.00 46 1014.0
20260503043221 52 264 0.0 2.0 0.00 0.00 0.00 44 1014.2
20260503042717 52 258 0.0 1.0 0.00 0.00 0.00 46 1014.1
20260503042214 52 273 2.0 2.0 0.00 0.00 0.00 46 1014.3
20260503041710 52 248 0.0 2.0 0.00 0.00 0.00 46 1014.0
20260503041208 52 267 0.0 1.0 0.00 0.00 0.00 46 1013.9
20260503040705 52 275 1.0 2.0 0.00 0.00 0.00 47 1013.8
20260503040203 52 273 0.0 2.0 0.00 0.00 0.00 47 1014.0
20260503035659 51 252 0.0 1.0 0.00 0.00 0.00 53 1014.1
20260503035157 51 264 0.0 0.0 0.00 0.00 0.00 58 1014.3
20260503034654 51 259 0.0 0.0 0.00 0.00 0.00 58 1014.3
20260503034151 50 248 0.0 0.0 0.00 0.00 0.00 59 1014.2
20260503033648 51 248 0.0 0.0 0.00 0.00 0.00 60 1014.0
20260503033146 51 249 0.0 0.0 0.00 0.00 0.00 61 1014.0
20260503032644 50 247 0.0 0.0 0.00 0.00 0.00 62 1014.1
20260503032142 50 247 0.0 0.0 0.00 0.00 0.00 63 1014.2
20260503031639 50 247 0.0 0.0 0.00 0.00 0.00 63 1014.3
20260503031137 50 247 0.0 0.0 0.00 0.00 0.00 65 1014.0
20260503030632 50 247 0.0 0.0 0.00 0.00 0.00 68 1014.1
20260503030129 50 247 0.0 0.0 0.00 0.00 0.00 70 1014.3
20260503025626 50 247 0.0 0.0 0.00 0.00 0.00 71 1013.9
20260503025124 50 247 0.0 0.0 0.00 0.00 0.00 71 1014.2
20260503024620 50 247 0.0 0.0 0.00 0.00 0.00 72 1014.1
20260503024117 50 247 0.0 0.0 0.00 0.00 0.00 70 1014.1
20260503023615 49 247 0.0 0.0 0.00 0.00 0.00 73 1014.4
20260503023112 50 247 0.0 0.0 0.00 0.00 0.00 75 1014.3
20260503022607 50 247 0.0 0.0 0.00 0.00 0.00 76 1014.4
20260503022102 50 247 0.0 0.0 0.00 0.00 0.00 78 1014.3
20260503021600 50 247 0.0 0.0 0.00 0.00 0.00 79 1014.2
20260503021056 50 247 0.0 0.0 0.00 0.00 0.00 79 1014.2
20260503020553 50 247 0.0 0.0 0.00 0.00 0.00 80 1013.9
20260503020050 50 247 0.0 0.0 0.00 0.00 0.00 81 1014.3
20260503015547 50 247 0.0 0.0 0.00 0.00 0.00 80 1014.4
20260503015044 50 247 0.0 0.0 0.00 0.00 0.00 80 1014.3
20260503014540 51 247 0.0 0.0 0.00 0.00 0.00 80 1014.4
20260503014038 50 247 0.0 0.0 0.00 0.00 0.00 81 1014.3
20260503013535 50 247 0.0 0.0 0.00 0.00 0.00 80 1014.1
20260503013033 50 247 0.0 0.0 0.00 0.00 0.00 80 1014.3
20260503012530 50 246 0.0 0.0 0.00 0.00 0.00 80 1014.4
20260503012026 51 246 0.0 0.0 0.00 0.00 0.00 80 1014.5
20260503011523 50 256 0.0 0.0 0.00 0.00 0.00 80 1014.0
20260503011020 50 270 0.0 0.0 0.00 0.00 0.00 79 1014.1
20260503010516 50 247 0.0 0.0 0.00 0.00 0.00 79 1014.1
20260503010014 51 247 0.0 0.0 0.00 0.00 0.00 77 1014.0
20260503005511 51 247 0.0 0.0 0.00 0.00 0.00 78 1014.0
20260503005008 51 253 0.0 0.0 0.00 0.00 0.00 77 1013.8
20260503004504 51 243 0.0 0.0 0.00 0.00 0.00 77 1013.8
20260503004002 51 243 0.0 0.0 0.00 0.00 0.00 77 1013.6
20260503003459 51 254 0.0 0.0 0.00 0.00 0.00 76 1013.7
20260503002956 51 254 0.0 0.0 0.00 0.00 0.00 75 1013.6
20260503002453 51 254 0.0 0.0 0.00 0.00 0.00 75 1013.7
20260503001949 52 253 0.0 0.0 0.00 0.00 0.00 74 1013.5
20260503001446 52 252 0.0 0.0 0.00 0.00 0.00 74 1013.8
20260503000943 52 251 0.0 0.0 0.00 0.00 0.00 73 1013.7
20260503000440 52 251 0.0 0.0 0.00 0.00 0.00 72 1013.6
20260502235938 53 251 0.0 0.0 0.00 0.00 0.00 71 1013.6
20260502235434 53 251 0.0 0.0 0.00 0.00 0.00 69 1013.7
20260502234932 53 251 0.0 1.0 0.00 0.00 0.00 68 1013.8
20260502234428 54 251 0.0 0.0 0.00 0.00 0.00 67 1013.6
20260502233925 55 251 0.0 0.0 0.00 0.00 0.00 65 1013.5
20260502233420 55 247 0.0 0.0 0.00 0.00 0.00 64 1013.7
20260502232918 56 253 0.0 0.0 0.00 0.00 0.00 63 1013.6
20260502232414 56 235 0.0 1.0 0.00 0.00 0.00 62 1013.6